Miscellaneous Local Product
Issued by NWS North Platte, NE

Home | Current Version | Previous Version | Text Only | Print | Product List | Glossary On
Versions: 1 2 3 4 5 6 7 8 9 10 11 12 13 14 15 16 17 18 19 20 21 22 23 24 25 26 27 28 29 30 31 32 33 34 35 36 37 38 39 40 41 42 43 44 45 46 47 48 49 50
000
AXUS43 KLBF 030610
MISLBF


WESTERN AND NORTH CENTRAL NEBRASKA HOURLY WEATHER ROUNDUP
NATIONAL WEATHER SERVICE NORTH PLATTE NE
1200 AM CST SAT DEC 03 2016

NOTE: "FAIR" INDICATES FEW OR NO CLOUDS BELOW 12,000 FEET WITH NO
SIGNIFICANT WEATHER AND/OR OBSTRUCTIONS TO VISIBILITY.

NOTE: STATIONS NOT REPORTING VARIABLES SUCH AS SKY/WEATHER OR
PRESSURE ARE PROVIDED BY RAWS AND APRS NETWORKS AND ARE NOT UNDER
NATIONAL WEATHER SERVICE QUALITY CONTROL.

...OBSERVATIONS IN AND NEAR THE EASTERN PANHANDLE OF NEBRASKA...

CITY           SKY/WX    TMP DP  RH WIND       PRES   REMARKS
PINE RIDGE     CLEAR     21  19  92 W5        30.16S WCI  15
CHADRON        CLEAR     19  14  81 CALM      30.16S
ALLIANCE       CLEAR     15  11  83 CALM      30.16F
SIDNEY         CLOUDY    19  14  81 SW8       30.18F WCI   9
CRESCENT LAKE    N/A     24  20  85 CALM        N/A
$$

...OBSERVATIONS IN NORTHERN NEBRASKA AND FAR SOUTHERN SOUTH DAKOTA...

CITY           SKY/WX    TMP DP  RH WIND       PRES   REMARKS
WINNER         FAIR      26  22  84 SE6       30.24R WCI  19
VALENTINE      CLEAR     20  17  88 CALM      30.21F
THEDFORD       CLEAR     29  22  76 SW12      30.22S WCI  19
AINSWORTH      CLEAR     22  21  93 S7        30.22S WCI  14
O`NEILL        CLEAR     26  24  93 S7        30.26S WCI  18
ORD            CLEAR     21  17  84 CALM      30.27S
BROKEN BOW     CLEAR     19  17  92 CALM      30.26R
VALENTINE NWR    N/A     22  20  90 S6          N/A  WCI  15
BUTTE            N/A     24  23  94 E3          N/A
HALSEY           N/A     28  19  68 SW3         N/A
CHAMBERS         N/A     24  21  87 S6          N/A  WCI  17
EWING            N/A     22  20  93 CALM        N/A
$$

...OBSERVATIONS IN SOUTHWEST NEBRASKA AND FAR NORTHEAST COLORADO...

CITY           SKY/WX    TMP DP  RH WIND       PRES   REMARKS
HOLYOKE        MOCLDY    27  21  80 S7        30.23S WCI  19
IMPERIAL       CLOUDY    29  22  75 CALM      30.25S
OGALLALA       CLOUDY    25  22  87 CALM      30.23S
MCCOOK         CLOUDY    29  22  75 S5        30.29S WCI  24
LEXINGTON      CLOUDY    23  20  89 CALM      30.30R
STAPLETON        N/A     21  18  89 CALM        N/A
GOTHENBURG       N/A     24  19  82 CALM        N/A
CALLAWAY         N/A     22  20  90 S7          N/A  WCI  14
$$

...OBSERVATIONS IN CENTRAL LINCOLN COUNTY AREA...

CITY           SKY/WX    TMP DP  RH WIND       PRES   REMARKS
N.P. DOWNTOWN    N/A     26  21  82 CALM        N/A
N.P. SOUTHEAST   N/A     25  21  83 CALM        N/A
N.P. HILLCREST   N/A     28  23  81 CALM        N/A
$$

...SOME OBSERVATIONS FROM AROUND THE REGION...

CITY           SKY/WX    TMP DP  RH WIND       PRES   REMARKS
LARAMIE        CLOUDY     6   4  91 NE6       30.08R FOG     WCI  -4
CHEYENNE       CLOUDY    23  20  88 SW9       30.11S WCI  13
DENVER         PTCLDY    23  16  74 SW12      30.14R WCI  12
AKRON          CLOUDY    29  21  72 S9        30.18F WCI  20
RAPID CITY     CLEAR     20  17  88 SE5       30.12F WCI  13
BISMARCK       CLOUDY    24  22  91 SE6       30.16F WCI  17
PIERRE         FOG       19  17  92 S6        30.22S VSB 1   WCI  11
SIOUX FALLS    CLOUDY    29  24  82 N5        30.29F WCI  24
OMAHA          MOCLDY    28  22  78 CALM      30.34S
GRAND ISLAND   CLEAR     25  23  92 S6        30.32R WCI  18
OKLAHOMA CITY  CLOUDY    47  45  93 NE7       30.24F
DALLAS         CLOUDY    57  37  47 E7        30.13S
AMARILLO       MIX PCPN  35  35 100 NE12      30.17S FOG     WCI  27
DODGE CITY     CLOUDY    36  20  52 CALM      30.28F
HAYS           MOCLDY    32  25  75 NE3       30.33R
$$




USA.gov is the U.S. government's official web portal to all federal, state and local government web resources and services.